| time (UTC) | temp F | wind direction | speed MPH | gust MPH | rain 1hr in | rain 24hr in | rain mn in | humidity % | barometer mb |
| 20260508065010 | 43 | 131 | 0.0 | 1.0 | 0.00 | 0.00 | 0.00 | 85 | 1015.0 |
| 20260508064542 | 43 | 131 | 0.0 | 1.0 | 0.00 | 0.00 | 0.00 | 86 | 1015.1 |
| 20260508064010 | 43 | 131 | 0.0 | 1.0 | 0.00 | 0.00 | 0.00 | 86 | 1015.1 |
| 20260508063510 | 43 | 0 | 0.0 | 1.0 | 0.00 | 0.00 | 0.00 | 86 | 1015.2 |
| 20260508063030 | 43 | 0 | 0.0 | 1.0 | 0.00 | 0.00 | 0.00 | 85 | 1015.2 |
| 20260508062514 | 44 | 0 | 0.0 | 0.0 | 0.00 | 0.00 | 0.00 | 84 | 1015.3 |
| 20260508062014 | 44 | 0 | 0.0 | 1.0 | 0.00 | 0.00 | 0.00 | 83 | 1015.3 |
| 20260508061534 | 44 | 0 | 0.0 | 1.0 | 0.00 | 0.00 | 0.00 | 83 | 1015.3 |
| 20260508061011 | 45 | 0 | 0.0 | 1.0 | 0.00 | 0.00 | 0.00 | 83 | 1015.4 |
| 20260508060517 | 45 | 0 | 0.0 | 1.0 | 0.00 | 0.00 | 0.00 | 82 | 1015.5 |
| 20260508060030 | 45 | 0 | 0.0 | 1.0 | 0.00 | 0.00 | 0.00 | 81 | 1015.5 |
| 20260508055513 | 45 | 0 | 0.0 | 1.0 | 0.00 | 0.00 | 0.00 | 80 | 1015.4 |
| 20260508055012 | 46 | 0 | 0.0 | 1.0 | 0.00 | 0.00 | 0.00 | 80 | 1015.4 |
| 20260508054542 | 46 | 131 | 0.0 | 1.0 | 0.00 | 0.00 | 0.00 | 80 | 1015.4 |
| 20260508054013 | 46 | 131 | 0.0 | 1.0 | 0.00 | 0.00 | 0.00 | 80 | 1015.5 |
| 20260508053512 | 46 | 131 | 0.0 | 1.0 | 0.00 | 0.00 | 0.00 | 80 | 1015.5 |
| 20260508053030 | 46 | 0 | 0.0 | 1.0 | 0.00 | 0.00 | 0.00 | 79 | 1015.6 |
| 20260508052515 | 46 | 0 | 0.0 | 1.0 | 0.00 | 0.00 | 0.00 | 77 | 1015.6 |
| 20260508052014 | 46 | 131 | 0.0 | 1.0 | 0.00 | 0.00 | 0.00 | 78 | 1015.7 |
| 20260508051534 | 46 | 0 | 0.0 | 1.0 | 0.00 | 0.00 | 0.00 | 78 | 1015.7 |
| 20260508051012 | 46 | 0 | 0.0 | 1.0 | 0.00 | 0.00 | 0.00 | 77 | 1015.6 |
| 20260508050515 | 46 | 131 | 0.0 | 1.0 | 0.00 | 0.00 | 0.00 | 76 | 1015.6 |
| 20260508050035 | 46 | 0 | 0.0 | 1.0 | 0.00 | 0.00 | 0.00 | 80 | 1015.5 |
| 20260508045513 | 46 | 67 | 0.0 | 1.0 | 0.00 | 0.00 | 0.00 | 79 | 1015.7 |
| 20260508045010 | 46 | 0 | 0.0 | 0.0 | 0.00 | 0.00 | 0.00 | 77 | 1015.5 |
| 20260508044530 | 46 | 0 | 0.0 | 0.0 | 0.00 | 0.00 | 0.00 | 79 | 1015.5 |
| 20260508044013 | 46 | 0 | 0.0 | 0.0 | 0.00 | 0.00 | 0.00 | 79 | 1015.5 |
| 20260508043513 | 46 | 0 | 0.0 | 0.0 | 0.00 | 0.00 | 0.00 | 78 | 1015.6 |
| 20260508043032 | 46 | 0 | 0.0 | 0.0 | 0.00 | 0.00 | 0.00 | 78 | 1015.6 |
| 20260508042512 | 46 | 0 | 0.0 | 0.0 | 0.00 | 0.00 | 0.00 | 77 | 1015.5 |
| 20260508042014 | 47 | 0 | 0.0 | 0.0 | 0.00 | 0.00 | 0.00 | 77 | 1015.6 |
| 20260508041530 | 47 | 0 | 0.0 | 0.0 | 0.00 | 0.00 | 0.00 | 77 | 1015.7 |
| 20260508041013 | 47 | 0 | 0.0 | 0.0 | 0.00 | 0.00 | 0.00 | 75 | 1015.6 |
| 20260508040513 | 47 | 0 | 0.0 | 0.0 | 0.00 | 0.00 | 0.00 | 73 | 1015.6 |
| 20260508040047 | 47 | 0 | 0.0 | 0.0 | 0.00 | 0.00 | 0.00 | 75 | 1015.6 |
| 20260508035510 | 47 | 0 | 0.0 | 0.0 | 0.00 | 0.00 | 0.00 | 75 | 1015.5 |
| 20260508035017 | 47 | 0 | 0.0 | 1.0 | 0.00 | 0.00 | 0.00 | 76 | 1015.5 |
| 20260508034539 | 47 | 0 | 0.0 | 1.0 | 0.00 | 0.00 | 0.00 | 77 | 1015.5 |
| 20260508034010 | 47 | 0 | 0.0 | 0.0 | 0.00 | 0.00 | 0.00 | 76 | 1015.5 |
| 20260508033511 | 47 | 0 | 0.0 | 0.0 | 0.00 | 0.00 | 0.00 | 75 | 1015.6 |
| 20260508033032 | 47 | 0 | 0.0 | 0.0 | 0.00 | 0.00 | 0.00 | 72 | 1015.7 |
| 20260508032513 | 47 | 0 | 0.0 | 1.0 | 0.00 | 0.00 | 0.00 | 77 | 1015.6 |
| 20260508032014 | 47 | 0 | 0.0 | 1.0 | 0.00 | 0.00 | 0.00 | 76 | 1015.6 |
| 20260508031533 | 47 | 0 | 0.0 | 1.0 | 0.00 | 0.00 | 0.00 | 76 | 1015.6 |
| 20260508031014 | 47 | 0 | 0.0 | 1.0 | 0.00 | 0.00 | 0.00 | 78 | 1015.7 |
| 20260508030511 | 47 | 0 | 0.0 | 1.0 | 0.00 | 0.00 | 0.00 | 78 | 1015.6 |
| 20260508030033 | 48 | 67 | 0.0 | 1.0 | 0.00 | 0.00 | 0.00 | 78 | 1015.7 |
| 20260508025510 | 48 | 0 | 0.0 | 1.0 | 0.00 | 0.00 | 0.00 | 78 | 1015.6 |
| 20260508025014 | 48 | 0 | 0.0 | 1.0 | 0.00 | 0.00 | 0.00 | 77 | 1015.6 |
| 20260508024531 | 49 | 0 | 0.0 | 1.0 | 0.00 | 0.00 | 0.00 | 74 | 1015.6 |
| 20260508024013 | 49 | 0 | 0.0 | 0.0 | 0.00 | 0.00 | 0.00 | 70 | 1015.4 |
| 20260508023513 | 49 | 0 | 0.0 | 0.0 | 0.00 | 0.00 | 0.00 | 68 | 1015.3 |
| 20260508023033 | 49 | 0 | 0.0 | 0.0 | 0.00 | 0.00 | 0.00 | 69 | 1015.3 |
| 20260508022510 | 49 | 0 | 0.0 | 0.0 | 0.00 | 0.00 | 0.00 | 69 | 1015.3 |
| 20260508022014 | 49 | 0 | 0.0 | 0.0 | 0.00 | 0.00 | 0.00 | 69 | 1015.2 |
| 20260508021533 | 50 | 0 | 0.0 | 0.0 | 0.00 | 0.00 | 0.00 | 70 | 1015.2 |
| 20260508021010 | 50 | 0 | 0.0 | 0.0 | 0.00 | 0.00 | 0.00 | 70 | 1015.1 |
| 20260508020512 | 50 | 0 | 0.0 | 0.0 | 0.00 | 0.00 | 0.00 | 69 | 1015.0 |
| 20260508020031 | 51 | 0 | 0.0 | 0.0 | 0.00 | 0.00 | 0.00 | 68 | 1015.0 |
| 20260508015516 | 51 | 0 | 0.0 | 0.0 | 0.00 | 0.00 | 0.00 | 67 | 1014.9 |
| 20260508015011 | 51 | 0 | 0.0 | 0.0 | 0.00 | 0.00 | 0.00 | 66 | 1014.7 |
| 20260508014530 | 52 | 0 | 0.0 | 0.0 | 0.00 | 0.00 | 0.00 | 66 | 1014.7 |
| 20260508014012 | 52 | 0 | 0.0 | 0.0 | 0.00 | 0.00 | 0.00 | 63 | 1014.7 |
| 20260508013512 | 52 | 0 | 0.0 | 0.0 | 0.00 | 0.00 | 0.00 | 62 | 1014.9 |
| 20260508013034 | 53 | 0 | 0.0 | 0.0 | 0.00 | 0.00 | 0.00 | 62 | 1014.8 |
| 20260508012510 | 53 | 0 | 0.0 | 0.0 | 0.00 | 0.00 | 0.00 | 61 | 1014.8 |
| 20260508012012 | 54 | 0 | 0.0 | 1.0 | 0.00 | 0.00 | 0.00 | 58 | 1014.7 |
| 20260508011533 | 54 | 0 | 0.0 | 1.0 | 0.00 | 0.00 | 0.00 | 57 | 1014.8 |
| 20260508011013 | 55 | 0 | 0.0 | 1.0 | 0.00 | 0.00 | 0.00 | 55 | 1014.5 |
| 20260508010513 | 55 | 67 | 0.0 | 1.0 | 0.00 | 0.00 | 0.00 | 57 | 1014.4 |
| 20260508010031 | 56 | 0 | 0.0 | 1.0 | 0.00 | 0.00 | 0.00 | 56 | 1014.5 |
| 20260508005509 | 56 | 0 | 0.0 | 1.0 | 0.00 | 0.00 | 0.00 | 55 | 1014.5 |
| 20260508005012 | 57 | 67 | 0.0 | 0.0 | 0.00 | 0.00 | 0.00 | 50 | 1014.5 |
| 20260508004533 | 58 | 0 | 0.0 | 0.0 | 0.00 | 0.00 | 0.00 | 50 | 1014.5 |
| 20260508004012 | 58 | 0 | 0.0 | 1.0 | 0.00 | 0.00 | 0.00 | 49 | 1014.4 |
| 20260508003518 | 59 | 0 | 0.0 | 1.0 | 0.00 | 0.00 | 0.00 | 47 | 1014.3 |
| 20260508003029 | 59 | 0 | 0.0 | 1.0 | 0.00 | 0.00 | 0.00 | 44 | 1014.3 |
| 20260508002509 | 60 | 0 | 0.0 | 1.0 | 0.00 | 0.00 | 0.00 | 45 | 1014.3 |
| 20260508002013 | 61 | 67 | 0.0 | 1.0 | 0.00 | 0.00 | 0.00 | 43 | 1014.3 |
| 20260508001532 | 62 | 0 | 0.0 | 1.0 | 0.00 | 0.00 | 0.00 | 41 | 1014.3 |
| 20260508001009 | 62 | 0 | 0.0 | 1.0 | 0.00 | 0.00 | 0.00 | 40 | 1014.2 |
| 20260508000515 | 64 | 67 | 0.0 | 1.0 | 0.00 | 0.00 | 0.00 | 39 | 1014.1 |
| 20260508000032 | 64 | 0 | 0.0 | 1.0 | 0.00 | 0.00 | 0.00 | 38 | 1014.2 |
| 20260507235517 | 64 | 0 | 0.0 | 1.0 | 0.00 | 0.00 | 0.00 | 38 | 1014.2 |
| 20260507235010 | 64 | 0 | 0.0 | 1.0 | 0.00 | 0.00 | 0.00 | 38 | 1014.0 |
| 20260507234543 | 63 | 0 | 0.0 | 1.0 | 0.00 | 0.00 | 0.00 | 38 | 1014.1 |
| 20260507234010 | 63 | 0 | 0.0 | 1.0 | 0.00 | 0.00 | 0.00 | 38 | 1014.1 |
| 20260507233510 | 63 | 73 | 0.0 | 1.0 | 0.00 | 0.00 | 0.00 | 39 | 1014.1 |
| 20260507233030 | 63 | 0 | 0.0 | 3.0 | 0.00 | 0.00 | 0.00 | 38 | 1014.2 |
| 20260507232511 | 62 | 73 | 1.0 | 5.0 | 0.00 | 0.00 | 0.00 | 38 | 1014.2 |
| 20260507232014 | 62 | 3 | 2.0 | 5.0 | 0.00 | 0.00 | 0.00 | 38 | 1014.2 |
| 20260507231532 | 63 | 38 | 3.0 | 5.0 | 0.00 | 0.00 | 0.00 | 38 | 1014.2 |
| 20260507231011 | 64 | 40 | 1.0 | 3.0 | 0.00 | 0.00 | 0.00 | 38 | 1014.2 |
| 20260507230513 | 64 | 78 | 1.0 | 3.0 | 0.00 | 0.00 | 0.00 | 37 | 1014.2 |
| 20260507230031 | 64 | 143 | 0.0 | 2.0 | 0.00 | 0.00 | 0.00 | 37 | 1014.3 |
| 20260507225512 | 63 | 143 | 0.0 | 4.0 | 0.00 | 0.00 | 0.00 | 37 | 1014.3 |
| 20260507225010 | 63 | 101 | 1.0 | 4.0 | 0.00 | 0.00 | 0.00 | 37 | 1014.3 |
| 20260507224532 | 63 | 358 | 1.0 | 6.0 | 0.00 | 0.00 | 0.00 | 38 | 1014.3 |
| 20260507224009 | 63 | 274 | 1.0 | 7.0 | 0.00 | 0.00 | 0.00 | 38 | 1014.4 |
| 20260507223510 | 62 | 325 | 4.0 | 10.0 | 0.00 | 0.00 | 0.00 | 38 | 1014.4 |
| 20260507223031 | 62 | 345 | 3.0 | 10.0 | 0.00 | 0.00 | 0.00 | 39 | 1014.3 |
| 20260507222513 | 62 | 351 | 4.0 | 8.0 | 0.00 | 0.00 | 0.00 | 38 | 1014.4 |
| 20260507222012 | 63 | 23 | 3.0 | 8.0 | 0.00 | 0.00 | 0.00 | 38 | 1014.4 |
| 20260507221534 | 63 | 312 | 2.0 | 8.0 | 0.00 | 0.00 | 0.00 | 40 | 1014.3 |
| 20260507221011 | 62 | 359 | 3.0 | 8.0 | 0.00 | 0.00 | 0.00 | 39 | 1014.2 |
| 20260507220512 | 63 | 41 | 3.0 | 7.0 | 0.00 | 0.00 | 0.00 | 38 | 1014.3 |
| 20260507220038 | 62 | 54 | 2.0 | 7.0 | 0.00 | 0.00 | 0.00 | 40 | 1014.2 |
| 20260507215512 | 62 | 47 | 4.0 | 9.0 | 0.00 | 0.00 | 0.00 | 39 | 1014.3 |
| 20260507215013 | 62 | 34 | 5.0 | 10.0 | 0.00 | 0.00 | 0.00 | 39 | 1014.2 |
| 20260507214533 | 63 | 46 | 4.0 | 10.0 | 0.00 | 0.00 | 0.00 | 37 | 1014.3 |
| 20260507214012 | 63 | 4 | 4.0 | 10.0 | 0.00 | 0.00 | 0.00 | 37 | 1014.3 |
| 20260507213513 | 62 | 243 | 3.0 | 8.0 | 0.00 | 0.00 | 0.00 | 39 | 1014.2 |
| 20260507213034 | 62 | 297 | 5.0 | 9.0 | 0.00 | 0.00 | 0.00 | 38 | 1014.3 |
| 20260507212514 | 62 | 250 | 3.0 | 9.0 | 0.00 | 0.00 | 0.00 | 39 | 1014.2 |
| 20260507212014 | 62 | 169 | 2.0 | 9.0 | 0.00 | 0.00 | 0.00 | 40 | 1014.4 |
| 20260507211537 | 62 | 356 | 2.0 | 9.0 | 0.00 | 0.00 | 0.00 | 39 | 1014.5 |
| 20260507211014 | 62 | 6 | 3.0 | 10.0 | 0.00 | 0.00 | 0.00 | 38 | 1014.5 |
| 20260507210513 | 62 | 32 | 3.0 | 12.0 | 0.00 | 0.00 | 0.00 | 41 | 1014.3 |
| 20260507210043 | 61 | 28 | 5.0 | 12.0 | 0.00 | 0.00 | 0.00 | 39 | 1014.3 |
| 20260507205517 | 61 | 8 | 6.0 | 12.0 | 0.00 | 0.00 | 0.00 | 38 | 1014.4 |
| 20260507205012 | 61 | 37 | 4.0 | 12.0 | 0.00 | 0.00 | 0.00 | 40 | 1014.4 |
| 20260507204536 | 61 | 34 | 6.0 | 10.0 | 0.00 | 0.00 | 0.00 | 38 | 1014.3 |
| 20260507204014 | 62 | 340 | 3.0 | 7.0 | 0.00 | 0.00 | 0.00 | 39 | 1014.4 |
| 20260507203516 | 62 | 79 | 2.0 | 11.0 | 0.00 | 0.00 | 0.00 | 38 | 1014.5 |
| 20260507203032 | 61 | 308 | 4.0 | 11.0 | 0.00 | 0.00 | 0.00 | 41 | 1014.5 |
| 20260507202514 | 61 | 34 | 4.0 | 11.0 | 0.00 | 0.00 | 0.00 | 41 | 1014.5 |
| 20260507202014 | 61 | 52 | 4.0 | 11.0 | 0.00 | 0.00 | 0.00 | 40 | 1014.5 |
| 20260507201532 | 61 | 300 | 2.0 | 17.0 | 0.00 | 0.00 | 0.00 | 41 | 1014.4 |
| 20260507201017 | 61 | 345 | 8.0 | 17.0 | 0.00 | 0.00 | 0.00 | 41 | 1014.6 |
| 20260507200515 | 60 | 343 | 3.0 | 13.0 | 0.00 | 0.00 | 0.00 | 42 | 1014.6 |
| 20260507200034 | 61 | 35 | 5.0 | 13.0 | 0.00 | 0.00 | 0.00 | 40 | 1014.7 |
| 20260507195514 | 60 | 3 | 4.0 | 15.0 | 0.00 | 0.00 | 0.00 | 40 | 1014.6 |
| 20260507195014 | 60 | 282 | 5.0 | 15.0 | 0.00 | 0.00 | 0.00 | 40 | 1014.9 |
| 20260507194546 | 61 | 309 | 7.0 | 15.0 | 0.00 | 0.00 | 0.00 | 42 | 1014.8 |
| 20260507194014 | 61 | 41 | 4.0 | 14.0 | 0.00 | 0.00 | 0.00 | 40 | 1014.7 |
| 20260507193518 | 61 | 313 | 5.0 | 14.0 | 0.00 | 0.00 | 0.00 | 40 | 1014.8 |
| 20260507193031 | 61 | 150 | 3.0 | 11.0 | 0.00 | 0.00 | 0.00 | 38 | 1014.7 |
| 20260507192513 | 60 | 292 | 3.0 | 11.0 | 0.00 | 0.00 | 0.00 | 42 | 1014.9 |
| 20260507192014 | 60 | 273 | 6.0 | 13.0 | 0.00 | 0.00 | 0.00 | 40 | 1014.8 |
| 20260507191532 | 60 | 351 | 7.0 | 14.0 | 0.00 | 0.00 | 0.00 | 40 | 1014.7 |
| 20260507191018 | 60 | 24 | 8.0 | 14.0 | 0.00 | 0.00 | 0.00 | 39 | 1014.8 |
| 20260507190513 | 60 | 14 | 7.0 | 13.0 | 0.00 | 0.00 | 0.00 | 39 | 1014.8 |
| 20260507190044 | 59 | 49 | 6.0 | 14.0 | 0.00 | 0.00 | 0.00 | 41 | 1014.9 |
| 20260507185527 | 60 | 23 | 5.0 | 14.0 | 0.00 | 0.00 | 0.00 | 40 | 1014.9 |
| 20260507185013 | 60 | 348 | 2.0 | 12.0 | 0.00 | 0.00 | 0.00 | 42 | 1015.0 |
| 20260507184541 | 59 | 6 | 5.0 | 14.0 | 0.00 | 0.00 | 0.00 | 41 | 1014.9 |
| 20260507184013 | 58 | 18 | 7.0 | 14.0 | 0.00 | 0.00 | 0.00 | 40 | 1015.0 |
| 20260507183514 | 59 | 42 | 8.0 | 13.0 | 0.00 | 0.00 | 0.00 | 40 | 1015.0 |
| 20260507183030 | 59 | 347 | 7.0 | 13.0 | 0.00 | 0.00 | 0.00 | 39 | 1015.0 |
| 20260507182512 | 59 | 347 | 6.0 | 15.0 | 0.00 | 0.00 | 0.00 | 42 | 1015.1 |
| 20260507182015 | 58 | 25 | 8.0 | 15.0 | 0.00 | 0.00 | 0.00 | 41 | 1015.0 |
| 20260507181531 | 59 | 8 | 6.0 | 13.0 | 0.00 | 0.00 | 0.00 | 38 | 1015.0 |
| 20260507181010 | 59 | 23 | 3.0 | 12.0 | 0.00 | 0.00 | 0.00 | 41 | 1015.0 |
| 20260507180511 | 59 | 311 | 4.0 | 11.0 | 0.00 | 0.00 | 0.00 | 40 | 1015.2 |
| 20260507180032 | 59 | 281 | 6.0 | 11.0 | 0.00 | 0.00 | 0.00 | 41 | 1015.2 |
| 20260507175510 | 59 | 34 | 3.0 | 11.0 | 0.00 | 0.00 | 0.00 | 43 | 1015.1 |
| 20260507175014 | 58 | 285 | 5.0 | 11.0 | 0.00 | 0.00 | 0.00 | 41 | 1015.2 |
| 20260507174535 | 58 | 275 | 5.0 | 14.0 | 0.00 | 0.00 | 0.00 | 41 | 1015.2 |
| 20260507174011 | 59 | 34 | 6.0 | 14.0 | 0.00 | 0.00 | 0.00 | 38 | 1015.4 |
| 20260507173517 | 58 | 252 | 4.0 | 13.0 | 0.00 | 0.00 | 0.00 | 39 | 1015.4 |
| 20260507173043 | 58 | 11 | 5.0 | 11.0 | 0.00 | 0.00 | 0.00 | 41 | 1015.5 |
| 20260507172513 | 58 | 331 | 4.0 | 14.0 | 0.00 | 0.00 | 0.00 | 42 | 1015.4 |
| 20260507172013 | 58 | 12 | 5.0 | 14.0 | 0.00 | 0.00 | 0.00 | 40 | 1015.6 |
| 20260507171530 | 58 | 335 | 4.0 | 9.0 | 0.00 | 0.00 | 0.00 | 39 | 1015.6 |
| 20260507171012 | 58 | 308 | 4.0 | 14.0 | 0.00 | 0.00 | 0.00 | 41 | 1015.7 |
| 20260507170511 | 57 | 290 | 7.0 | 14.0 | 0.00 | 0.00 | 0.00 | 42 | 1015.8 |
| 20260507170031 | 57 | 332 | 3.0 | 12.0 | 0.00 | 0.00 | 0.00 | 43 | 1015.7 |
| 20260507165511 | 57 | 337 | 6.0 | 13.0 | 0.00 | 0.00 | 0.00 | 43 | 1015.8 |
| 20260507165013 | 57 | 352 | 7.0 | 16.0 | 0.00 | 0.00 | 0.00 | 39 | 1015.8 |
| 20260507164544 | 57 | 42 | 9.0 | 16.0 | 0.00 | 0.00 | 0.00 | 40 | 1015.9 |
| 20260507164011 | 58 | 51 | 5.0 | 12.0 | 0.00 | 0.00 | 0.00 | 41 | 1015.9 |
| 20260507163512 | 57 | 339 | 3.0 | 12.0 | 0.00 | 0.00 | 0.00 | 43 | 1016.0 |
| 20260507163032 | 57 | 338 | 6.0 | 12.0 | 0.00 | 0.00 | 0.00 | 40 | 1016.0 |
| 20260507162512 | 57 | 20 | 2.0 | 7.0 | 0.00 | 0.00 | 0.00 | 41 | 1016.1 |
| 20260507162016 | 57 | 274 | 2.0 | 10.0 | 0.00 | 0.00 | 0.00 | 42 | 1016.2 |
| 20260507161546 | 56 | 262 | 2.0 | 13.0 | 0.00 | 0.00 | 0.00 | 46 | 1016.2 |
| 20260507161010 | 56 | 11 | 5.0 | 13.0 | 0.00 | 0.00 | 0.00 | 41 | 1016.1 |
| 20260507160512 | 56 | 341 | 7.0 | 11.0 | 0.00 | 0.00 | 0.00 | 43 | 1016.1 |
| 20260507160030 | 56 | 2 | 3.0 | 9.0 | 0.00 | 0.00 | 0.00 | 43 | 1016.0 |
| 20260507155510 | 56 | 338 | 5.0 | 12.0 | 0.00 | 0.00 | 0.00 | 43 | 1016.1 |
| 20260507155014 | 56 | 327 | 4.0 | 16.0 | 0.00 | 0.00 | 0.00 | 44 | 1016.2 |
| 20260507154532 | 55 | 331 | 7.0 | 16.0 | 0.00 | 0.00 | 0.00 | 45 | 1016.2 |
| 20260507154013 | 55 | 41 | 6.0 | 12.0 | 0.00 | 0.00 | 0.00 | 45 | 1016.0 |
| 20260507153513 | 55 | 328 | 4.0 | 11.0 | 0.00 | 0.00 | 0.00 | 47 | 1016.1 |
| 20260507153036 | 55 | 318 | 5.0 | 11.0 | 0.00 | 0.00 | 0.00 | 48 | 1016.0 |
| 20260507152520 | 55 | 210 | 5.0 | 12.0 | 0.00 | 0.00 | 0.00 | 47 | 1015.9 |
| 20260507152010 | 54 | 282 | 6.0 | 14.0 | 0.00 | 0.00 | 0.00 | 48 | 1016.0 |
| 20260507151536 | 54 | 359 | 6.0 | 14.0 | 0.00 | 0.00 | 0.00 | 46 | 1016.0 |
| 20260507151013 | 54 | 355 | 9.0 | 14.0 | 0.00 | 0.00 | 0.00 | 46 | 1016.0 |
| 20260507150513 | 54 | 31 | 5.0 | 11.0 | 0.00 | 0.00 | 0.00 | 46 | 1016.0 |
| 20260507150036 | 55 | 339 | 4.0 | 10.0 | 0.00 | 0.00 | 0.00 | 49 | 1015.9 |
| 20260507145512 | 55 | 30 | 5.0 | 11.0 | 0.00 | 0.00 | 0.00 | 47 | 1015.8 |
| 20260507145018 | 54 | 46 | 5.0 | 15.0 | 0.00 | 0.00 | 0.00 | 50 | 1015.9 |
| 20260507144536 | 54 | 14 | 7.0 | 15.0 | 0.00 | 0.00 | 0.00 | 50 | 1015.9 |
| 20260507144009 | 54 | 34 | 7.0 | 15.0 | 0.00 | 0.00 | 0.00 | 50 | 1015.9 |
| 20260507143512 | 54 | 3 | 4.0 | 11.0 | 0.00 | 0.00 | 0.00 | 52 | 1016.1 |
| 20260507143036 | 54 | 333 | 4.0 | 12.0 | 0.00 | 0.00 | 0.00 | 51 | 1016.0 |
| 20260507142512 | 53 | 44 | 6.0 | 12.0 | 0.00 | 0.00 | 0.00 | 49 | 1016.0 |
| 20260507142012 | 53 | 32 | 6.0 | 10.0 | 0.00 | 0.00 | 0.00 | 52 | 1015.9 |
| 20260507141534 | 53 | 353 | 4.0 | 11.0 | 0.00 | 0.00 | 0.00 | 53 | 1016.0 |
| 20260507141015 | 53 | 25 | 4.0 | 11.0 | 0.00 | 0.00 | 0.00 | 52 | 1015.9 |
| 20260507140512 | 53 | 67 | 6.0 | 14.0 | 0.00 | 0.00 | 0.00 | 51 | 1015.9 |
| 20260507140030 | 53 | 355 | 5.0 | 14.0 | 0.00 | 0.00 | 0.00 | 52 | 1015.9 |
| 20260507135509 | 53 | 31 | 5.0 | 12.0 | 0.00 | 0.00 | 0.00 | 54 | 1015.8 |
| 20260507135012 | 52 | 39 | 5.0 | 12.0 | 0.00 | 0.00 | 0.00 | 52 | 1016.0 |
| 20260507134531 | 52 | 354 | 6.0 | 11.0 | 0.00 | 0.00 | 0.00 | 52 | 1016.0 |
| 20260507134009 | 52 | 86 | 5.0 | 11.0 | 0.00 | 0.00 | 0.00 | 54 | 1015.9 |
| 20260507133511 | 51 | 349 | 5.0 | 9.0 | 0.00 | 0.00 | 0.00 | 56 | 1015.9 |
| 20260507133031 | 51 | 23 | 6.0 | 10.0 | 0.00 | 0.00 | 0.00 | 56 | 1015.9 |
| 20260507132513 | 51 | 37 | 5.0 | 10.0 | 0.00 | 0.00 | 0.00 | 58 | 1015.9 |
| 20260507132009 | 51 | 328 | 3.0 | 8.0 | 0.00 | 0.00 | 0.00 | 60 | 1015.8 |
| 20260507131530 | 51 | 5 | 3.0 | 8.0 | 0.00 | 0.00 | 0.00 | 62 | 1015.8 |
| 20260507131013 | 51 | 14 | 3.0 | 8.0 | 0.00 | 0.00 | 0.00 | 64 | 1015.8 |
| 20260507130517 | 50 | 62 | 4.0 | 9.0 | 0.00 | 0.00 | 0.00 | 64 | 1015.8 |
| 20260507130038 | 50 | 37 | 6.0 | 9.0 | 0.00 | 0.00 | 0.00 | 63 | 1015.9 |
| 20260507125510 | 50 | 34 | 4.0 | 8.0 | 0.00 | 0.00 | 0.00 | 65 | 1015.9 |
| 20260507125013 | 49 | 42 | 4.0 | 8.0 | 0.00 | 0.00 | 0.00 | 66 | 1015.7 |
| 20260507124538 | 49 | 27 | 4.0 | 7.0 | 0.00 | 0.00 | 0.00 | 67 | 1015.7 |
| 20260507124013 | 49 | 51 | 3.0 | 7.0 | 0.00 | 0.00 | 0.00 | 68 | 1015.6 |
| 20260507123517 | 49 | 338 | 3.0 | 7.0 | 0.00 | 0.00 | 0.00 | 70 | 1015.8 |
| 20260507123032 | 48 | 12 | 4.0 | 7.0 | 0.00 | 0.00 | 0.00 | 70 | 1015.7 |
| 20260507122514 | 48 | 30 | 3.0 | 6.0 | 0.00 | 0.00 | 0.00 | 72 | 1015.7 |
| 20260507122013 | 48 | 37 | 4.0 | 6.0 | 0.00 | 0.00 | 0.00 | 73 | 1015.8 |
| 20260507121531 | 47 | 70 | 3.0 | 6.0 | 0.00 | 0.00 | 0.00 | 75 | 1015.8 |
| 20260507121012 | 47 | 342 | 1.0 | 6.0 | 0.00 | 0.00 | 0.00 | 77 | 1015.9 |
| 20260507120514 | 46 | 14 | 3.0 | 6.0 | 0.00 | 0.00 | 0.00 | 77 | 1015.9 |
| 20260507120032 | 46 | 350 | 2.0 | 4.0 | 0.00 | 0.00 | 0.00 | 78 | 1015.9 |
| 20260507115513 | 46 | 32 | 2.0 | 4.0 | 0.00 | 0.00 | 0.00 | 78 | 1015.9 |
| 20260507115017 | 46 | 39 | 1.0 | 2.0 | 0.00 | 0.00 | 0.00 | 80 | 1015.9 |
| 20260507114554 | 45 | 0 | 0.0 | 0.0 | 0.00 | 0.00 | 0.00 | 81 | 1015.9 |
| 20260507114018 | 46 | 0 | 0.0 | 1.0 | 0.00 | 0.00 | 0.00 | 82 | 1015.9 |
| 20260507113515 | 45 | 0 | 0.0 | 2.0 | 0.00 | 0.00 | 0.00 | 82 | 1015.9 |
| 20260507113057 | 45 | 49 | 1.0 | 3.0 | 0.00 | 0.00 | 0.00 | 80 | 1015.9 |
| 20260507112513 | 45 | 0 | 0.0 | 3.0 | 0.00 | 0.00 | 0.00 | 82 | 1016.0 |
| 20260507112013 | 44 | 34 | 1.0 | 3.0 | 0.00 | 0.00 | 0.00 | 83 | 1015.8 |
| 20260507111538 | 44 | 54 | 0.0 | 3.0 | 0.00 | 0.00 | 0.00 | 83 | 1015.7 |
| 20260507111011 | 43 | 54 | 0.0 | 3.0 | 0.00 | 0.00 | 0.00 | 84 | 1015.6 |
| 20260507110513 | 43 | 343 | 1.0 | 4.0 | 0.00 | 0.00 | 0.00 | 84 | 1015.7 |
| 20260507110032 | 43 | 6 | 1.0 | 4.0 | 0.00 | 0.00 | 0.00 | 85 | 1015.6 |
| 20260507105514 | 43 | 345 | 2.0 | 4.0 | 0.00 | 0.00 | 0.00 | 84 | 1015.5 |
| 20260507105015 | 43 | 25 | 2.0 | 4.0 | 0.00 | 0.00 | 0.00 | 84 | 1015.5 |
| 20260507104539 | 43 | 5 | 2.0 | 3.0 | 0.00 | 0.00 | 0.00 | 84 | 1015.4 |
| 20260507104014 | 43 | 4 | 1.0 | 3.0 | 0.00 | 0.00 | 0.00 | 84 | 1015.4 |
| 20260507103512 | 44 | 11 | 1.0 | 4.0 | 0.00 | 0.00 | 0.00 | 84 | 1015.3 |
| 20260507103030 | 44 | 27 | 2.0 | 6.0 | 0.00 | 0.00 | 0.00 | 83 | 1015.3 |
| 20260507102513 | 44 | 47 | 3.0 | 6.0 | 0.00 | 0.00 | 0.00 | 83 | 1015.1 |
| 20260507102015 | 44 | 359 | 3.0 | 6.0 | 0.00 | 0.00 | 0.00 | 83 | 1015.2 |
| 20260507101532 | 44 | 45 | 3.0 | 6.0 | 0.00 | 0.00 | 0.00 | 83 | 1015.1 |
| 20260507101016 | 44 | 45 | 2.0 | 6.0 | 0.00 | 0.00 | 0.00 | 84 | 1015.2 |
| 20260507100513 | 44 | 13 | 3.0 | 6.0 | 0.00 | 0.00 | 0.00 | 84 | 1015.3 |
| 20260507100029 | 44 | 18 | 3.0 | 6.0 | 0.00 | 0.00 | 0.00 | 85 | 1015.2 |
| 20260507095514 | 44 | 1 | 3.0 | 6.0 | 0.00 | 0.00 | 0.00 | 85 | 1015.3 |
| 20260507095013 | 44 | 39 | 3.0 | 6.0 | 0.00 | 0.00 | 0.00 | 86 | 1015.3 |
| 20260507094535 | 44 | 34 | 3.0 | 7.0 | 0.00 | 0.00 | 0.00 | 86 | 1015.3 |
| 20260507094012 | 45 | 12 | 3.0 | 7.0 | 0.00 | 0.00 | 0.00 | 86 | 1015.2 |
| 20260507093517 | 45 | 30 | 3.0 | 7.0 | 0.00 | 0.00 | 0.00 | 86 | 1015.2 |
| 20260507093035 | 45 | 36 | 3.0 | 6.0 | 0.00 | 0.00 | 0.00 | 87 | 1015.3 |
| 20260507092515 | 45 | 31 | 3.0 | 5.0 | 0.00 | 0.00 | 0.00 | 87 | 1015.3 |
| 20260507092014 | 44 | 32 | 3.0 | 5.0 | 0.00 | 0.00 | 0.00 | 88 | 1015.2 |
| 20260507091536 | 44 | 43 | 1.0 | 4.0 | 0.00 | 0.00 | 0.00 | 89 | 1015.3 |
| 20260507091010 | 44 | 307 | 1.0 | 4.0 | 0.00 | 0.00 | 0.00 | 89 | 1015.2 |
| 20260507090516 | 44 | 354 | 1.0 | 3.0 | 0.00 | 0.00 | 0.00 | 89 | 1015.1 |
| 20260507090032 | 44 | 347 | 1.0 | 3.0 | 0.00 | 0.00 | 0.00 | 89 | 1015.1 |
| 20260507085514 | 44 | 340 | 1.0 | 3.0 | 0.00 | 0.00 | 0.00 | 89 | 1015.0 |
| 20260507085013 | 44 | 0 | 0.0 | 1.0 | 0.00 | 0.00 | 0.00 | 89 | 1015.0 |
| 20260507084540 | 45 | 43 | 0.0 | 1.0 | 0.00 | 0.00 | 0.00 | 89 | 1014.9 |
| 20260507084011 | 45 | 43 | 0.0 | 1.0 | 0.00 | 0.00 | 0.00 | 89 | 1014.8 |
| 20260507083514 | 45 | 43 | 0.0 | 1.0 | 0.00 | 0.00 | 0.00 | 89 | 1014.9 |
| 20260507083030 | 45 | 43 | 0.0 | 2.0 | 0.00 | 0.00 | 0.00 | 88 | 1014.7 |
| 20260507082513 | 45 | 43 | 1.0 | 2.0 | 0.00 | 0.00 | 0.00 | 89 | 1014.8 |
| 20260507082014 | 45 | 11 | 1.0 | 2.0 | 0.00 | 0.00 | 0.00 | 89 | 1014.7 |
| 20260507081536 | 45 | 24 | 1.0 | 1.0 | 0.00 | 0.00 | 0.00 | 89 | 1014.7 |
| 20260507081013 | 45 | 24 | 0.0 | 2.0 | 0.00 | 0.00 | 0.00 | 90 | 1014.8 |
| 20260507080515 | 45 | 21 | 0.0 | 2.0 | 0.00 | 0.00 | 0.00 | 90 | 1014.6 |
| 20260507080030 | 45 | 0 | 0.0 | 2.0 | 0.00 | 0.00 | 0.00 | 91 | 1014.7 |
| 20260507075512 | 45 | 37 | 0.0 | 1.0 | 0.00 | 0.03 | 0.00 | 92 | 1014.7 |
| 20260507075014 | 44 | 37 | 0.0 | 1.0 | 0.00 | 0.03 | 0.00 | 93 | 1014.7 |
| 20260507074532 | 44 | 0 | 0.0 | 1.0 | 0.00 | 0.03 | 0.00 | 93 | 1014.7 |
| 20260507074013 | 44 | 0 | 0.0 | 1.0 | 0.00 | 0.03 | 0.00 | 93 | 1014.8 |
| 20260507073512 | 45 | 0 | 0.0 | 1.0 | 0.00 | 0.03 | 0.00 | 93 | 1014.6 |
| 20260507073034 | 45 | 0 | 0.0 | 1.0 | 0.00 | 0.03 | 0.00 | 93 | 1014.7 |
| 20260507072515 | 45 | 0 | 0.0 | 1.0 | 0.00 | 0.03 | 0.00 | 93 | 1014.6 |
| 20260507072013 | 45 | 0 | 0.0 | 1.0 | 0.00 | 0.03 | 0.00 | 94 | 1014.6 |
| 20260507071530 | 45 | 0 | 0.0 | 1.0 | 0.00 | 0.03 | 0.00 | 93 | 1014.7 |
| 20260507071013 | 45 | 0 | 0.0 | 1.0 | 0.00 | 0.03 | 0.00 | 93 | 1014.6 |
| 20260507070511 | 45 | 0 | 0.0 | 1.0 | 0.00 | 0.03 | 0.00 | 93 | 1014.6 |
| 20260507070030 | 45 | 0 | 0.0 | 1.0 | 0.00 | 0.03 | 0.00 | 93 | 1014.5 |
| 20260507065513 | 45 | 0 | 0.0 | 1.0 | 0.00 | 0.15 | 0.00 | 93 | 1014.7 |